Home > Weather > Askim > Past weeks

Flag for Norway Weather for the Past 2 Weeks in Askim, Norway

Now
52 °F

Sunny.


Feels Like: 47 °F
Forecast: 43 / 58 °F
Wind: 13 mph from South

Location: Rygge

Current Time: May 5, 2016 at 10:45:05 AM

Latest Report: May 5, 2016 at 9:50 AM


Visibility: 10 mi

Pressure: 30.33 "Hg

Humidity: 67%

Dew Point: 41 °F

Location of AskimLocation

Historic Weather in Askim — Graph

°F

Askim Temperature Yesterday

Maximum temperature yesterday: 55 °F (at 11:50 AM)
Minimum temperature yesterday: 36 °F (at 6:50 AM)
Average temperature yesterday: 46 °F

High & Low Weather Summary for the Past Weeks

 TemperatureHumidityPressure
High57 °F (Apr 21, 4:20 PM)100% (Apr 25, 12:50 AM)30.33 "Hg (Apr 25, 12:50 AM)
Low28 °F (Apr 23, 5:20 AM)24% (Apr 22, 4:50 PM)29.62 "Hg (Apr 25, 12:50 PM)
Average43 °F69%29.96 "Hg
* Reported Apr 20 9:20 AM — May 5 9:20 AM, Askim, Weather by CustomWeather, © 2016

Note: Actual official high and low records may vary slightly from our data, if they occured in-between our weather recording intervals... More about our weather records

Advertising

Askim Weather History for the Previous 24 Hours

Scroll right to see more
 ConditionsComfort  
Time TempWeatherWind HumidityBarometerVisibility
9:20 AM
Thu, May 5
52 °FSunny.12 mph62%30.33 "Hg10 mi
8:50 AM50 °FSunny.9 mph67%30.33 "Hg10 mi
8:20 AM48 °FSunny.8 mph71%30.33 "Hg10 mi
7:50 AM48 °FSunny.8 mph71%30.33 "Hg10 mi
7:20 AM46 °FSunny.6 mph76%30.33 "Hg10 mi
6:50 AM45 °FSunny.6 mph81%30.33 "Hg10 mi
6:20 AM43 °FSunny.6 mph87%30.33 "Hg10 mi
5:50 AM43 °FClear.7 mph87%30.33 "Hg10 mi
5:20 AM41 °FPassing clouds.7 mph93%30.30 "HgN/A
4:50 AM41 °FPassing clouds.6 mph100%30.30 "HgN/A
4:20 AM43 °FPassing clouds.6 mph93%30.30 "HgN/A
3:50 AM43 °FPassing clouds.7 mph93%30.30 "HgN/A
3:20 AM43 °FPassing clouds.7 mph87%30.30 "HgN/A
2:50 AM43 °FPartly cloudy.7 mph87%30.30 "HgN/A
2:20 AM43 °FPassing clouds.6 mph87%30.30 "HgN/A
1:50 AM43 °FPassing clouds.9 mph87%30.30 "HgN/A
1:20 AM43 °FPassing clouds.8 mph87%30.30 "HgN/A
12:50 AM43 °FQuite cool.8 mph87%30.30 "HgN/A
12:20 AM43 °FQuite cool.8 mph81%30.30 "HgN/A
11:50 PM
Wed, May 4
43 °FQuite cool.9 mph87%30.30 "HgN/A
11:20 PM43 °FClear.7 mph81%30.30 "Hg10 mi
10:50 PM46 °FClear.8 mph76%30.30 "Hg10 mi
10:20 PM45 °FClear.8 mph81%30.30 "Hg10 mi
9:50 PM46 °FSunny.10 mph76%30.30 "Hg10 mi
9:20 PM48 °FSunny.8 mph71%30.30 "Hg10 mi
8:50 PM50 °FSunny.8 mph67%30.30 "Hg10 mi
8:20 PM52 °FSunny.10 mph62%30.30 "Hg10 mi
7:50 PM54 °FSunny.10 mph58%30.30 "Hg10 mi
7:20 PM52 °FSunny.12 mph67%30.30 "Hg10 mi
6:50 PM52 °FPassing clouds.14 mph62%30.30 "HgN/A
6:20 PM54 °FSunny.13 mph54%30.30 "Hg10 mi
5:50 PM52 °FSunny.15 mph58%30.30 "Hg10 mi
5:20 PM52 °FSunny.15 mph54%30.30 "Hg10 mi
4:50 PM54 °FSunny.15 mph54%30.30 "Hg10 mi
4:20 PM54 °FSunny.15 mph51%30.30 "Hg10 mi
3:50 PM54 °FPassing clouds.14 mph47%30.30 "HgN/A
3:20 PM54 °FSunny.13 mph47%30.30 "Hg10 mi
2:50 PM55 °FSunny.12 mph55%30.30 "Hg10 mi
2:20 PM54 °FSunny.13 mph54%30.30 "Hg10 mi
1:50 PM55 °FSunny.12 mph38%30.30 "Hg10 mi
1:20 PM55 °FSunny.5 mph44%30.30 "Hg10 mi
12:50 PM55 °FPassing clouds.6 mph51%30.30 "HgN/A
12:20 PM54 °FPassing clouds.3 mph47%30.30 "HgN/A
11:50 AM55 °FSunny.2 mph47%30.27 "Hg10 mi
11:20 AM52 °FPassing clouds.3 mph54%30.27 "HgN/A
10:50 AM52 °FSunny.1 mph62%30.27 "Hg10 mi
10:20 AM48 °FSunny.3 mph71%30.27 "Hg10 mi
Weather by CustomWeather, © 2016

See weather overviewHow to use our weather pages